Time,TemperatureF,DewpointF,PressureIn,WindDirection,WindDirectionDegrees,WindSpeedMPH,WindSpeedGustMPH,Humidity,HourlyPrecipIn,Conditions,Clouds,dailyrainin,SoftwareType,DateUTC
2013-01-26 00:02:00,25.8,18.6,28.82,NE,45,3.5,5.5,74,0.00,,,0.00,WUHU216HW,2013-01-26 06:02:00,
2013-01-26 00:07:00,25.7,18.5,28.82,NE,45,0.0,3.5,74,0.00,,,0.00,WUHU216HW,2013-01-26 06:07:00,
2013-01-26 00:12:00,25.5,18.3,28.82,NE,45,0.0,0.0,74,0.00,,,0.00,WUHU216HW,2013-01-26 06:12:00,
2013-01-26 00:17:00,25.5,18.3,28.82,NE,45,6.2,6.2,74,0.00,,,0.00,WUHU216HW,2013-01-26 06:17:00,
2013-01-26 00:22:00,25.3,18.1,28.82,NE,45,0.0,6.2,74,0.00,,,0.00,WUHU216HW,2013-01-26 06:22:00,
2013-01-26 00:27:00,25.1,17.9,28.82,NE,45,0.0,1.5,74,0.00,,,0.00,WUHU216HW,2013-01-26 06:27:00,
2013-01-26 00:32:00,24.9,17.7,28.82,NE,45,0.0,1.5,74,0.00,,,0.00,WUHU216HW,2013-01-26 06:32:00,
2013-01-26 00:37:00,24.6,17.4,28.82,NE,45,0.0,0.0,74,0.00,,,0.00,WUHU216HW,2013-01-26 06:37:00,
2013-01-26 00:42:00,24.6,17.4,28.82,NE,45,3.1,3.1,74,0.00,,,0.00,WUHU216HW,2013-01-26 06:42:00,
2013-01-26 00:47:00,24.6,17.4,28.82,NE,45,0.0,3.1,74,0.00,,,0.00,WUHU216HW,2013-01-26 06:47:00,
2013-01-26 00:52:00,24.4,17.6,28.82,NE,45,0.0,0.0,75,0.00,,,0.00,WUHU216HW,2013-01-26 06:52:00,
2013-01-26 00:57:00,24.0,16.9,28.82,NE,45,0.0,0.0,74,0.00,,,0.00,WUHU216HW,2013-01-26 06:57:00,
2013-01-26 01:02:00,24.0,17.2,28.82,NE,45,0.0,0.0,75,0.00,,,0.00,WUHU216HW,2013-01-26 07:02:00,
2013-01-26 01:08:00,23.9,17.0,28.82,NE,45,0.0,0.0,75,0.00,,,0.00,WUHU216HW,2013-01-26 07:08:00,
2013-01-26 01:13:00,23.9,17.0,28.82,NE,45,0.0,0.0,75,0.00,,,0.00,WUHU216HW,2013-01-26 07:13:00,
2013-01-26 01:18:00,23.7,16.9,28.82,NE,45,0.0,0.0,75,0.00,,,0.00,WUHU216HW,2013-01-26 07:18:00,
2013-01-26 01:23:00,23.5,16.7,28.82,NE,45,0.0,0.0,75,0.00,,,0.00,WUHU216HW,2013-01-26 07:23:00,
2013-01-26 01:28:00,23.5,16.4,28.82,NE,45,0.0,0.0,74,0.00,,,0.00,WUHU216HW,2013-01-26 07:28:00,
2013-01-26 01:33:00,23.1,16.1,28.82,NE,45,0.0,0.0,74,0.00,,,0.00,WUHU216HW,2013-01-26 07:33:00,
2013-01-26 01:38:00,22.8,15.7,28.82,NE,45,0.0,0.0,74,0.00,,,0.00,WUHU216HW,2013-01-26 07:38:00,
2013-01-26 01:43:00,22.8,15.7,28.82,NE,45,0.0,0.0,74,0.00,,,0.00,WUHU216HW,2013-01-26 07:43:00,
2013-01-26 01:48:00,22.4,15.7,28.82,NE,45,0.0,0.0,75,0.00,,,0.00,WUHU216HW,2013-01-26 07:48:00,
2013-01-26 01:53:00,22.2,15.5,28.82,ENE,68,0.0,0.0,75,0.00,,,0.00,WUHU216HW,2013-01-26 07:53:00,
2013-01-26 01:58:00,22.1,15.3,28.82,ENE,68,0.0,0.0,75,0.00,,,0.00,WUHU216HW,2013-01-26 07:58:00,
2013-01-26 02:03:00,21.9,14.8,28.82,ENE,68,0.0,0.0,74,0.00,,,0.00,WUHU216HW,2013-01-26 08:03:00,
2013-01-26 02:08:00,21.9,14.8,28.82,ENE,68,0.0,0.0,74,0.00,,,0.00,WUHU216HW,2013-01-26 08:08:00,
2013-01-26 02:13:00,21.5,14.5,28.81,ENE,68,0.0,0.0,74,0.00,,,0.00,WUHU216HW,2013-01-26 08:13:00,
2013-01-26 02:18:00,21.3,14.3,28.81,ENE,68,0.0,0.0,74,0.00,,,0.00,WUHU216HW,2013-01-26 08:18:00,
2013-01-26 02:23:00,21.0,13.9,28.81,ENE,68,0.0,0.0,74,0.00,,,0.00,WUHU216HW,2013-01-26 08:23:00,
2013-01-26 02:28:00,21.0,13.9,28.82,SE,135,0.0,0.0,74,0.00,,,0.00,WUHU216HW,2013-01-26 08:28:00,
2013-01-26 02:33:00,20.8,13.7,28.81,SE,135,0.0,0.0,74,0.00,,,0.00,WUHU216HW,2013-01-26 08:33:00,
2013-01-26 02:38:00,20.6,13.6,28.82,SE,135,0.0,0.0,74,0.00,,,0.00,WUHU216HW,2013-01-26 08:38:00,
2013-01-26 02:43:00,20.4,13.4,28.82,SE,135,0.0,0.0,74,0.00,,,0.00,WUHU216HW,2013-01-26 08:43:00,
2013-01-26 02:48:00,20.4,13.7,28.82,SE,135,0.0,0.0,75,0.00,,,0.00,WUHU216HW,2013-01-26 08:48:00,
2013-01-26 02:53:00,20.4,13.7,28.82,SE,135,0.0,0.0,75,0.00,,,0.00,WUHU216HW,2013-01-26 08:53:00,
2013-01-26 02:58:00,20.4,13.7,28.82,SE,135,0.0,4.2,75,0.00,,,0.00,WUHU216HW,2013-01-26 08:58:00,
2013-01-26 03:03:00,20.4,13.7,28.82,SE,135,7.3,7.3,75,0.00,,,0.00,WUHU216HW,2013-01-26 09:03:00,
2013-01-26 03:08:00,20.4,13.7,28.82,SE,135,4.6,7.3,75,0.00,,,0.00,WUHU216HW,2013-01-26 09:08:00,
2013-01-26 03:13:00,20.3,13.5,28.82,SE,135,0.0,7.3,75,0.00,,,0.00,WUHU216HW,2013-01-26 09:13:00,
2013-01-26 03:18:00,20.3,13.5,28.82,SE,135,4.0,4.0,75,0.00,,,0.00,WUHU216HW,2013-01-26 09:18:00,
2013-01-26 03:23:00,20.3,13.5,28.82,SE,135,6.9,6.9,75,0.00,,,0.00,WUHU216HW,2013-01-26 09:23:00,
2013-01-26 03:28:00,19.9,13.1,28.82,SE,135,2.2,6.9,75,0.00,,,0.00,WUHU216HW,2013-01-26 09:28:00,
2013-01-26 03:33:00,19.9,13.1,28.81,SE,135,5.3,5.3,75,0.00,,,0.00,WUHU216HW,2013-01-26 09:33:00,
2013-01-26 03:38:00,19.7,13.0,28.81,SE,135,3.8,5.5,75,0.00,,,0.00,WUHU216HW,2013-01-26 09:38:00,
2013-01-26 03:43:00,19.5,12.8,28.81,ESE,113,0.0,5.5,75,0.00,,,0.00,WUHU216HW,2013-01-26 09:43:00,
2013-01-26 03:48:00,19.5,12.5,28.81,SE,135,2.6,4.9,74,0.00,,,0.00,WUHU216HW,2013-01-26 09:48:00,
2013-01-26 03:53:00,19.2,12.1,28.81,SE,135,0.0,4.9,74,0.00,,,0.00,WUHU216HW,2013-01-26 09:53:00,
2013-01-26 03:59:00,19.2,12.1,28.80,ESE,113,0.0,3.1,74,0.00,,,0.00,WUHU216HW,2013-01-26 09:59:00,
2013-01-26 04:04:00,18.8,11.8,28.80,ESE,113,0.0,3.1,74,0.00,,,0.00,WUHU216HW,2013-01-26 10:04:00,
2013-01-26 04:09:00,18.6,11.6,28.80,ESE,113,0.0,0.0,74,0.00,,,0.00,WUHU216HW,2013-01-26 10:09:00,
2013-01-26 04:14:00,18.5,11.7,28.80,ESE,113,1.5,1.5,75,0.00,,,0.00,WUHU216HW,2013-01-26 10:14:00,
2013-01-26 04:19:00,18.3,11.6,28.79,SE,135,1.5,1.5,75,0.00,,,0.00,WUHU216HW,2013-01-26 10:19:00,
2013-01-26 04:24:00,18.3,11.6,28.79,SE,135,2.2,4.2,75,0.00,,,0.00,WUHU216HW,2013-01-26 10:24:00,
2013-01-26 04:29:00,18.3,11.6,28.80,SE,135,3.8,4.2,75,0.00,,,0.00,WUHU216HW,2013-01-26 10:29:00,
2013-01-26 04:34:00,18.1,11.4,28.79,SE,135,2.6,3.8,75,0.00,,,0.00,WUHU216HW,2013-01-26 10:34:00,
2013-01-26 04:39:00,18.1,11.4,28.79,SE,135,4.9,4.9,75,0.00,,,0.00,WUHU216HW,2013-01-26 10:39:00,
2013-01-26 04:44:00,17.9,11.2,28.79,SE,135,4.0,4.9,75,0.00,,,0.00,WUHU216HW,2013-01-26 10:44:00,
2013-01-26 04:49:00,17.9,11.2,28.79,SE,135,4.0,4.9,75,0.00,,,0.00,WUHU216HW,2013-01-26 10:49:00,
2013-01-26 04:54:00,17.7,11.1,28.79,SE,135,2.2,7.6,75,0.00,,,0.00,WUHU216HW,2013-01-26 10:54:00,
2013-01-26 04:59:00,17.7,11.1,28.80,ESE,113,2.4,7.6,75,0.00,,,0.00,WUHU216HW,2013-01-26 10:59:00,
2013-01-26 05:04:00,17.7,11.1,28.79,SE,135,4.9,4.9,75,0.00,,,0.00,WUHU216HW,2013-01-26 11:04:00,
2013-01-26 05:09:00,17.7,11.1,28.80,SE,135,0.0,4.9,75,0.00,,,0.00,WUHU216HW,2013-01-26 11:09:00,
2013-01-26 05:15:00,17.4,10.7,28.80,SE,135,0.0,4.0,75,0.00,,,0.00,WUHU216HW,2013-01-26 11:15:00,
2013-01-26 05:20:00,17.4,10.7,28.80,SE,135,0.0,2.6,75,0.00,,,0.00,WUHU216HW,2013-01-26 11:20:00,
2013-01-26 05:25:00,17.4,10.7,28.81,SE,135,0.0,3.3,75,0.00,,,0.00,WUHU216HW,2013-01-26 11:25:00,
2013-01-26 05:30:00,17.4,10.7,28.80,SE,135,0.0,3.3,75,0.00,,,0.00,WUHU216HW,2013-01-26 11:30:00,
2013-01-26 05:35:00,17.2,10.5,28.80,SE,135,4.4,4.4,75,0.00,,,0.00,WUHU216HW,2013-01-26 11:35:00,
2013-01-26 05:40:00,17.2,10.5,28.80,SE,135,4.6,4.6,75,0.00,,,0.00,WUHU216HW,2013-01-26 11:40:00,
2013-01-26 05:45:00,17.2,10.5,28.80,SE,135,7.8,7.8,75,0.00,,,0.00,WUHU216HW,2013-01-26 11:45:00,
2013-01-26 05:50:00,17.2,10.5,28.80,SE,135,7.3,7.8,75,0.00,,,0.00,WUHU216HW,2013-01-26 11:50:00,
2013-01-26 05:55:00,17.2,10.8,28.80,ESE,113,6.0,7.8,76,0.00,,,0.00,WUHU216HW,2013-01-26 11:55:00,
2013-01-26 06:00:00,17.2,10.8,28.80,ESE,113,6.0,7.3,76,0.00,,,0.00,WUHU216HW,2013-01-26 12:00:00,
2013-01-26 06:05:00,17.2,10.8,28.80,SE,135,5.8,8.0,76,0.00,,,0.00,WUHU216HW,2013-01-26 12:05:00,
2013-01-26 06:10:00,17.2,10.8,28.79,SE,135,0.0,8.0,76,0.00,,,0.00,WUHU216HW,2013-01-26 12:10:00,
2013-01-26 06:16:00,17.2,10.8,28.79,SE,135,2.2,7.6,76,0.00,,,0.00,WUHU216HW,2013-01-26 12:16:00,
2013-01-26 06:21:00,17.2,10.8,28.79,SSE,158,5.3,7.1,76,0.00,,,0.00,WUHU216HW,2013-01-26 12:21:00,
2013-01-26 06:26:00,17.2,10.8,28.79,SE,135,5.3,5.3,76,0.00,,,0.00,WUHU216HW,2013-01-26 12:26:00,
2013-01-26 06:31:00,17.2,10.8,28.79,SE,135,6.0,6.0,76,0.00,,,0.00,WUHU216HW,2013-01-26 12:31:00,
2013-01-26 06:36:00,17.0,10.7,28.80,SE,135,5.3,6.0,76,0.00,,,0.00,WUHU216HW,2013-01-26 12:36:00,
2013-01-26 06:41:00,16.8,10.5,28.80,SE,135,4.2,6.4,76,0.00,,,0.00,WUHU216HW,2013-01-26 12:41:00,
2013-01-26 06:46:00,16.8,10.5,28.80,ESE,113,0.0,6.7,76,0.00,,,0.00,WUHU216HW,2013-01-26 12:46:00,
2013-01-26 06:51:00,16.8,10.5,28.80,SE,135,4.2,6.7,76,0.00,,,0.00,WUHU216HW,2013-01-26 12:51:00,
2013-01-26 06:56:00,16.8,10.5,28.80,SE,135,9.1,9.1,76,0.00,,,0.00,WUHU216HW,2013-01-26 12:56:00,
2013-01-26 07:01:00,16.8,10.5,28.79,SE,135,10.0,10.0,76,0.00,,,0.00,WUHU216HW,2013-01-26 13:01:00,
2013-01-26 07:06:00,16.7,10.3,28.79,SE,135,8.9,10.0,76,0.00,,,0.00,WUHU216HW,2013-01-26 13:06:00,
2013-01-26 07:11:00,16.7,10.3,28.80,SE,135,7.1,8.9,76,0.00,,,0.00,WUHU216HW,2013-01-26 13:11:00,
2013-01-26 07:16:00,16.7,10.3,28.80,SE,135,6.9,7.1,76,0.00,,,0.00,WUHU216HW,2013-01-26 13:16:00,
2013-01-26 07:21:00,16.7,10.3,28.80,SSE,158,8.2,8.2,76,0.00,,,0.00,WUHU216HW,2013-01-26 13:21:00,
2013-01-26 07:27:00,16.5,10.2,28.80,SE,135,6.4,8.2,76,0.00,,,0.00,WUHU216HW,2013-01-26 13:27:00,
2013-01-26 07:32:00,16.3,10.0,28.80,SE,135,5.1,6.4,76,0.00,,,0.00,WUHU216HW,2013-01-26 13:32:00,
2013-01-26 07:37:00,16.3,10.0,28.80,SSE,158,6.9,9.1,76,0.00,,,0.00,WUHU216HW,2013-01-26 13:37:00,
2013-01-26 07:42:00,16.3,10.0,28.80,ESE,113,6.9,9.1,76,0.00,,,0.00,WUHU216HW,2013-01-26 13:42:00,
2013-01-26 07:47:00,16.1,9.5,28.79,SE,135,8.2,8.2,75,0.00,,,0.00,WUHU216HW,2013-01-26 13:47:00,
2013-01-26 07:52:00,16.1,9.5,28.79,SE,135,8.7,9.8,75,0.00,,,0.00,WUHU216HW,2013-01-26 13:52:00,
2013-01-26 07:57:00,16.1,9.5,28.80,SSE,158,6.4,9.8,75,0.00,,,0.00,WUHU216HW,2013-01-26 13:57:00,
2013-01-26 08:02:00,15.9,9.3,28.80,SSE,158,7.6,12.3,75,0.00,,,0.00,WUHU216HW,2013-01-26 14:02:00,
2013-01-26 08:07:00,16.1,9.5,28.80,SSE,158,6.9,12.3,75,0.00,,,0.00,WUHU216HW,2013-01-26 14:07:00,
2013-01-26 08:12:00,16.1,9.5,28.80,SE,135,6.9,7.6,75,0.00,,,0.00,WUHU216HW,2013-01-26 14:12:00,
2013-01-26 08:17:00,16.1,9.2,28.81,ESE,113,9.3,10.0,74,0.00,,,0.00,WUHU216HW,2013-01-26 14:17:00,
2013-01-26 08:22:00,16.3,9.4,28.81,SE,135,4.0,10.0,74,0.00,,,0.00,WUHU216HW,2013-01-26 14:22:00,
2013-01-26 08:27:00,16.3,9.4,28.81,SE,135,6.2,9.3,74,0.00,,,0.00,WUHU216HW,2013-01-26 14:27:00,
2013-01-26 08:32:00,16.5,9.6,28.81,SSE,158,11.1,11.4,74,0.00,,,0.00,WUHU216HW,2013-01-26 14:32:00,
2013-01-26 08:37:00,16.5,9.6,28.81,ESE,113,7.3,11.4,74,0.00,,,0.00,WUHU216HW,2013-01-26 14:37:00,
2013-01-26 08:42:00,16.7,9.7,28.81,SE,135,5.3,11.1,74,0.00,,,0.00,WUHU216HW,2013-01-26 14:42:00,
2013-01-26 08:48:00,16.8,9.9,28.81,SE,135,8.2,11.6,73,0.00,,,0.00,WUHU216HW,2013-01-26 14:48:00,
2013-01-26 08:53:00,17.2,10.0,28.81,SSE,158,15.4,15.4,73,0.00,,,0.00,WUHU216HW,2013-01-26 14:53:00,
2013-01-26 08:58:00,17.4,10.1,28.81,SSE,158,11.4,15.6,73,0.00,,,0.00,WUHU216HW,2013-01-26 14:58:00,
2013-01-26 09:03:00,17.9,10.6,28.80,SSE,158,6.9,15.6,73,0.00,,,0.00,WUHU216HW,2013-01-26 15:03:00,
2013-01-26 09:08:00,18.3,11.0,28.80,SSE,158,10.9,10.9,73,0.00,,,0.00,WUHU216HW,2013-01-26 15:08:00,
2013-01-26 09:13:00,18.8,11.5,28.80,SE,135,8.0,10.9,73,0.00,,,0.00,WUHU216HW,2013-01-26 15:13:00,
2013-01-26 09:18:00,19.2,11.8,28.80,SSE,158,10.9,11.8,73,0.00,,,0.00,WUHU216HW,2013-01-26 15:18:00,
2013-01-26 09:23:00,19.5,12.2,28.80,ESE,113,8.2,11.8,73,0.00,,,0.00,WUHU216HW,2013-01-26 15:23:00,
2013-01-26 09:28:00,20.3,12.9,28.80,SE,135,7.1,17.4,73,0.00,,,0.00,WUHU216HW,2013-01-26 15:28:00,
2013-01-26 09:33:00,20.6,13.2,28.80,South,180,6.2,17.4,73,0.00,,,0.00,WUHU216HW,2013-01-26 15:33:00,
2013-01-26 09:38:00,21.0,13.6,28.81,SE,135,2.9,10.7,73,0.00,,,0.00,WUHU216HW,2013-01-26 15:38:00,
2013-01-26 09:43:00,21.5,14.1,28.81,SE,135,11.4,16.1,73,0.00,,,0.00,WUHU216HW,2013-01-26 15:43:00,
2013-01-26 09:48:00,21.9,14.2,28.80,SSE,158,6.2,16.1,72,0.00,,,0.00,WUHU216HW,2013-01-26 15:48:00,
2013-01-26 09:53:00,22.2,14.6,28.81,SE,135,12.7,12.7,72,0.00,,,0.00,WUHU216HW,2013-01-26 15:53:00,
2013-01-26 09:58:00,22.8,15.1,28.81,SE,135,7.1,15.4,72,0.00,,,0.00,WUHU216HW,2013-01-26 15:58:00,
2013-01-26 10:03:00,23.1,15.4,28.80,SE,135,5.8,15.4,72,0.00,,,0.00,WUHU216HW,2013-01-26 16:03:00,
2013-01-26 10:08:00,23.5,15.5,28.80,SSE,158,6.0,7.6,71,0.00,,,0.00,WUHU216HW,2013-01-26 16:08:00,
2013-01-26 10:13:00,23.9,15.8,28.80,SSE,158,5.3,12.7,71,0.00,,,0.00,WUHU216HW,2013-01-26 16:13:00,
2013-01-26 10:18:00,24.2,16.1,28.80,SSE,158,9.1,12.7,71,0.00,,,0.00,WUHU216HW,2013-01-26 16:18:00,
2013-01-26 10:23:00,24.6,16.4,28.79,SE,135,11.8,11.8,71,0.00,,,0.00,WUHU216HW,2013-01-26 16:23:00,
2013-01-26 10:28:00,25.3,17.1,28.80,SSE,158,10.2,12.3,71,0.00,,,0.00,WUHU216HW,2013-01-26 16:28:00,
2013-01-26 10:34:00,25.8,17.4,28.80,SSE,158,8.0,12.3,70,0.00,,,0.00,WUHU216HW,2013-01-26 16:34:00,
2013-01-26 10:39:00,26.2,18.0,28.79,SE,135,11.6,12.0,71,0.00,,,0.00,WUHU216HW,2013-01-26 16:39:00,
2013-01-26 10:44:00,27.1,18.6,28.79,SSE,158,10.9,11.6,70,0.00,,,0.00,WUHU216HW,2013-01-26 16:44:00,
2013-01-26 10:49:00,27.6,19.2,28.79,SSE,158,15.2,15.2,70,0.00,,,0.00,WUHU216HW,2013-01-26 16:49:00,
2013-01-26 10:54:00,28.2,19.7,28.79,SSE,158,15.8,15.8,70,0.00,,,0.00,WUHU216HW,2013-01-26 16:54:00,
2013-01-26 10:59:00,29.1,20.2,28.79,SSE,158,8.5,16.7,69,0.00,,,0.00,WUHU216HW,2013-01-26 16:59:00,
2013-01-26 11:04:00,29.8,20.8,28.79,SSE,158,8.0,16.7,69,0.00,,,0.00,WUHU216HW,2013-01-26 17:04:00,
2013-01-26 11:09:00,30.5,21.5,28.79,SSE,158,11.8,14.7,69,0.00,,,0.00,WUHU216HW,2013-01-26 17:09:00,
2013-01-26 11:14:00,31.1,21.7,28.79,South,180,10.5,11.8,68,0.00,,,0.00,WUHU216HW,2013-01-26 17:14:00,
2013-01-26 11:19:00,31.8,22.1,28.78,SSE,158,12.7,15.2,67,0.00,,,0.00,WUHU216HW,2013-01-26 17:19:00,
2013-01-26 11:24:00,32.3,22.2,28.78,SSE,158,6.7,16.3,66,0.00,,,0.00,WUHU216HW,2013-01-26 17:24:00,
2013-01-26 11:29:00,32.7,22.5,28.78,SSE,158,6.9,16.3,66,0.00,,,0.00,WUHU216HW,2013-01-26 17:29:00,
2013-01-26 11:34:00,32.9,22.3,28.78,SSE,158,10.7,14.5,65,0.00,,,0.00,WUHU216HW,2013-01-26 17:34:00,
2013-01-26 11:39:00,33.0,22.5,28.78,South,180,10.5,11.4,65,0.00,,,0.00,WUHU216HW,2013-01-26 17:39:00,
2013-01-26 11:44:00,33.2,22.3,28.78,South,180,9.6,11.1,64,0.00,,,0.00,WUHU216HW,2013-01-26 17:44:00,
2013-01-26 11:50:00,33.8,22.8,28.77,South,180,15.2,15.2,64,0.00,,,0.00,WUHU216HW,2013-01-26 17:50:00,
2013-01-26 11:55:00,34.1,23.1,28.77,SSE,158,10.0,15.2,64,0.00,,,0.00,WUHU216HW,2013-01-26 17:55:00,
2013-01-26 12:00:00,34.3,23.0,28.77,South,180,14.0,15.2,63,0.00,,,0.00,WUHU216HW,2013-01-26 18:00:00,
2013-01-26 12:05:00,34.8,23.5,28.77,SSE,158,9.6,14.0,63,0.00,,,0.00,WUHU216HW,2013-01-26 18:05:00,
2013-01-26 12:10:00,35.2,23.9,28.76,SSE,158,8.9,12.9,63,0.00,,,0.00,WUHU216HW,2013-01-26 18:10:00,
2013-01-26 12:15:00,35.7,24.0,28.76,SSE,158,7.1,16.1,62,0.00,,,0.00,WUHU216HW,2013-01-26 18:15:00,
2013-01-26 12:20:00,36.3,24.5,28.75,SSE,158,12.3,16.5,62,0.00,,,0.00,WUHU216HW,2013-01-26 18:20:00,
2013-01-26 12:25:00,37.0,25.2,28.75,South,180,10.0,16.5,62,0.00,,,0.00,WUHU216HW,2013-01-26 18:25:00,
2013-01-26 12:30:00,37.5,25.3,28.74,SE,135,11.1,16.1,61,0.00,,,0.00,WUHU216HW,2013-01-26 18:30:00,
2013-01-26 12:35:00,37.9,25.6,28.74,SSE,158,16.1,16.1,61,0.00,,,0.00,WUHU216HW,2013-01-26 18:35:00,
2013-01-26 12:40:00,38.1,25.4,28.73,SSE,158,14.3,16.1,60,0.00,,,0.00,WUHU216HW,2013-01-26 18:40:00,
2013-01-26 12:45:00,39.0,26.2,28.73,South,180,7.1,14.3,60,0.00,,,0.00,WUHU216HW,2013-01-26 18:45:00,
2013-01-26 12:50:00,39.3,26.6,28.73,South,180,10.7,12.0,60,0.00,,,0.00,WUHU216HW,2013-01-26 18:50:00,
2013-01-26 12:55:00,39.7,26.5,28.73,SSE,158,12.7,17.4,59,0.00,,,0.00,WUHU216HW,2013-01-26 18:55:00,
2013-01-26 13:00:00,40.8,27.1,28.72,South,180,10.9,17.4,58,0.00,,,0.00,WUHU216HW,2013-01-26 19:00:00,
2013-01-26 13:05:00,41.0,26.8,28.71,South,180,13.1,14.5,57,0.00,,,0.00,WUHU216HW,2013-01-26 19:05:00,
2013-01-26 13:11:00,41.3,27.1,28.71,South,180,8.7,13.1,57,0.00,,,0.00,WUHU216HW,2013-01-26 19:11:00,
2013-01-26 13:16:00,41.7,27.5,28.70,South,180,10.7,12.3,57,0.00,,,0.00,WUHU216HW,2013-01-26 19:16:00,
2013-01-26 13:21:00,42.4,27.7,28.70,South,180,11.8,15.6,56,0.00,,,0.00,WUHU216HW,2013-01-26 19:21:00,
2013-01-26 13:26:00,42.6,27.5,28.70,SSE,158,10.5,15.6,55,0.00,,,0.00,WUHU216HW,2013-01-26 19:26:00,
2013-01-26 13:31:00,43.3,28.1,28.69,SSE,158,14.5,14.9,55,0.00,,,0.00,WUHU216HW,2013-01-26 19:31:00,
2013-01-26 13:36:00,43.7,28.0,28.69,South,180,6.9,14.5,54,0.00,,,0.00,WUHU216HW,2013-01-26 19:36:00,
2013-01-26 13:41:00,43.7,27.6,28.69,SSE,158,12.5,16.3,53,0.00,,,0.00,WUHU216HW,2013-01-26 19:41:00,
2013-01-26 13:46:00,43.7,27.6,28.68,SSE,158,6.9,16.3,53,0.00,,,0.00,WUHU216HW,2013-01-26 19:46:00,
2013-01-26 13:51:00,43.8,27.8,28.69,SSW,203,10.7,15.8,53,0.00,,,0.00,WUHU216HW,2013-01-26 19:51:00,
2013-01-26 13:56:00,44.2,28.1,28.68,South,180,10.2,15.8,53,0.00,,,0.00,WUHU216HW,2013-01-26 19:56:00,
2013-01-26 14:01:00,44.7,28.6,28.68,SSE,158,11.6,12.3,53,0.00,,,0.00,WUHU216HW,2013-01-26 20:01:00,
2013-01-26 14:06:00,44.9,28.3,28.68,South,180,11.1,15.2,52,0.00,,,0.00,WUHU216HW,2013-01-26 20:06:00,
2013-01-26 14:11:00,45.1,28.5,28.67,South,180,14.0,15.2,52,0.00,,,0.00,WUHU216HW,2013-01-26 20:11:00,
2013-01-26 14:16:00,45.6,29.0,28.67,South,180,6.9,14.0,52,0.00,,,0.00,WUHU216HW,2013-01-26 20:16:00,
2013-01-26 14:21:00,45.3,28.2,28.67,South,180,18.1,18.1,51,0.00,,,0.00,WUHU216HW,2013-01-26 20:21:00,
2013-01-26 14:26:00,45.1,28.0,28.67,South,180,13.4,18.1,51,0.00,,,0.00,WUHU216HW,2013-01-26 20:26:00,
2013-01-26 14:32:00,45.3,28.6,28.67,SSW,203,15.6,18.1,52,0.00,,,0.00,WUHU216HW,2013-01-26 20:32:00,
2013-01-26 14:37:00,46.0,28.8,28.67,South,180,13.6,16.7,51,0.00,,,0.00,WUHU216HW,2013-01-26 20:37:00,
2013-01-26 14:42:00,46.2,29.0,28.67,SSE,158,11.8,18.3,51,0.00,,,0.00,WUHU216HW,2013-01-26 20:42:00,
2013-01-26 14:47:00,46.7,29.0,28.67,SSE,158,13.8,18.5,50,0.00,,,0.00,WUHU216HW,2013-01-26 20:47:00,
2013-01-26 14:52:00,46.9,29.2,28.67,South,180,7.6,18.5,50,0.00,,,0.00,WUHU216HW,2013-01-26 20:52:00,
2013-01-26 14:57:00,47.1,29.4,28.66,South,180,12.3,19.6,50,0.00,,,0.00,WUHU216HW,2013-01-26 20:57:00,
2013-01-26 15:02:00,47.3,29.0,28.66,SSW,203,13.6,19.6,49,0.00,,,0.00,WUHU216HW,2013-01-26 21:02:00,
2013-01-26 15:07:00,47.4,29.1,28.66,South,180,10.7,13.6,49,0.00,,,0.00,WUHU216HW,2013-01-26 21:07:00,
2013-01-26 15:12:00,47.8,29.5,28.66,South,180,10.7,13.8,49,0.00,,,0.00,WUHU216HW,2013-01-26 21:12:00,
2013-01-26 15:17:00,48.0,29.6,28.65,South,180,10.9,14.0,49,0.00,,,0.00,WUHU216HW,2013-01-26 21:17:00,
2013-01-26 15:22:00,48.0,29.6,28.65,SSE,158,10.2,16.1,49,0.00,,,0.00,WUHU216HW,2013-01-26 21:22:00,
2013-01-26 15:27:00,48.0,29.6,28.64,SSE,158,7.8,16.1,49,0.00,,,0.00,WUHU216HW,2013-01-26 21:27:00,
2013-01-26 15:32:00,48.3,29.4,28.64,South,180,10.0,18.1,48,0.00,,,0.00,WUHU216HW,2013-01-26 21:32:00,
2013-01-26 15:37:00,48.3,29.4,28.64,SSE,158,11.6,18.1,48,0.00,,,0.00,WUHU216HW,2013-01-26 21:37:00,
2013-01-26 15:42:00,48.7,29.6,28.64,SSE,158,10.0,13.1,48,0.00,,,0.00,WUHU216HW,2013-01-26 21:42:00,
2013-01-26 15:47:00,48.7,30.3,28.64,SSE,158,13.1,13.1,49,0.00,,,0.00,WUHU216HW,2013-01-26 21:47:00,
2013-01-26 15:52:00,48.7,29.8,28.63,SSE,158,9.1,13.1,48,0.00,,,0.00,WUHU216HW,2013-01-26 21:52:00,
2013-01-26 15:57:00,48.7,30.3,28.63,SSE,158,4.2,13.1,49,0.00,,,0.00,WUHU216HW,2013-01-26 21:57:00,
2013-01-26 16:03:00,49.1,30.1,28.63,SW,225,12.3,12.3,48,0.00,,,0.00,WUHU216HW,2013-01-26 22:03:00,
2013-01-26 16:08:00,49.1,30.1,28.63,South,180,12.0,12.3,48,0.00,,,0.00,WUHU216HW,2013-01-26 22:08:00,
2013-01-26 16:13:00,49.2,29.8,28.63,South,180,7.8,18.3,47,0.00,,,0.00,WUHU216HW,2013-01-26 22:13:00,
2013-01-26 16:18:00,49.2,29.8,28.63,South,180,8.9,18.3,47,0.00,,,0.00,WUHU216HW,2013-01-26 22:18:00,
2013-01-26 16:23:00,49.2,29.8,28.63,South,180,7.6,13.1,47,0.00,,,0.00,WUHU216HW,2013-01-26 22:23:00,
2013-01-26 16:28:00,49.4,29.9,28.63,South,180,9.6,13.1,47,0.00,,,0.00,WUHU216HW,2013-01-26 22:28:00,
2013-01-26 16:33:00,49.6,30.1,28.63,SSE,158,6.2,13.1,47,0.00,,,0.00,WUHU216HW,2013-01-26 22:33:00,
2013-01-26 16:38:00,49.6,30.1,28.63,SSE,158,9.1,13.1,47,0.00,,,0.00,WUHU216HW,2013-01-26 22:38:00,
2013-01-26 16:43:00,49.1,29.6,28.63,SSE,158,5.5,9.1,47,0.00,,,0.00,WUHU216HW,2013-01-26 22:43:00,
2013-01-26 16:48:00,48.7,29.2,28.63,SE,135,7.1,9.1,47,0.00,,,0.00,WUHU216HW,2013-01-26 22:48:00,
2013-01-26 16:53:00,48.2,28.9,28.62,SE,135,9.1,10.7,47,0.00,,,0.00,WUHU216HW,2013-01-26 22:53:00,
2013-01-26 16:58:00,47.4,28.1,28.62,SE,135,4.0,10.7,47,0.00,,,0.00,WUHU216HW,2013-01-26 22:58:00,
2013-01-26 17:03:00,47.1,27.7,28.62,SSE,158,3.3,9.1,47,0.00,,,0.00,WUHU216HW,2013-01-26 23:03:00,
2013-01-26 17:08:00,46.2,27.5,28.62,South,180,6.4,11.4,48,0.00,,,0.00,WUHU216HW,2013-01-26 23:08:00,
2013-01-26 17:13:00,45.6,27.0,28.62,SE,135,6.0,11.4,48,0.00,,,0.00,WUHU216HW,2013-01-26 23:13:00,
2013-01-26 17:18:00,44.9,26.9,28.62,SSE,158,10.7,10.7,49,0.00,,,0.00,WUHU216HW,2013-01-26 23:18:00,
2013-01-26 17:24:00,44.2,26.8,28.62,SSE,158,8.9,10.7,50,0.00,,,0.00,WUHU216HW,2013-01-26 23:24:00,
2013-01-26 17:29:00,43.5,26.1,28.62,SSE,158,4.2,8.9,50,0.00,,,0.00,WUHU216HW,2013-01-26 23:29:00,
2013-01-26 17:34:00,43.1,26.2,28.62,SSE,158,6.7,8.9,51,0.00,,,0.00,WUHU216HW,2013-01-26 23:34:00,
2013-01-26 17:39:00,42.6,25.7,28.62,SSE,158,6.2,8.9,51,0.00,,,0.00,WUHU216HW,2013-01-26 23:39:00,
2013-01-26 17:44:00,42.0,25.2,28.62,SSE,158,5.8,8.9,51,0.00,,,0.00,WUHU216HW,2013-01-26 23:44:00,
2013-01-26 17:49:00,41.9,25.5,28.62,SSE,158,3.3,6.2,52,0.00,,,0.00,WUHU216HW,2013-01-26 23:49:00,
2013-01-26 17:54:00,41.5,25.1,28.62,SE,135,1.5,7.1,52,0.00,,,0.00,WUHU216HW,2013-01-26 23:54:00,
2013-01-26 17:59:00,41.1,25.4,28.61,SE,135,6.7,9.3,53,0.00,,,0.00,WUHU216HW,2013-01-26 23:59:00,
2013-01-26 18:04:00,40.8,24.8,28.61,SSE,158,8.0,9.3,53,0.00,,,0.00,WUHU216HW,2013-01-27 00:04:00,
2013-01-26 18:09:00,40.8,24.8,28.61,SE,135,6.9,8.0,53,0.00,,,0.00,WUHU216HW,2013-01-27 00:09:00,
2013-01-26 18:14:00,40.4,24.9,28.62,SE,135,7.8,8.0,54,0.00,,,0.00,WUHU216HW,2013-01-27 00:14:00,
2013-01-26 18:19:00,40.2,24.8,28.62,SE,135,10.0,10.0,54,0.00,,,0.00,WUHU216HW,2013-01-27 00:19:00,
2013-01-26 18:24:00,40.1,24.6,28.62,SE,135,10.9,10.9,54,0.00,,,0.00,WUHU216HW,2013-01-27 00:24:00,
2013-01-26 18:29:00,39.9,24.9,28.62,SE,135,2.0,10.9,55,0.00,,,0.00,WUHU216HW,2013-01-27 00:29:00,
2013-01-26 18:34:00,39.7,24.7,28.62,SE,135,8.5,8.7,55,0.00,,,0.00,WUHU216HW,2013-01-27 00:34:00,
2013-01-26 18:39:00,39.5,24.6,28.62,SSE,158,8.0,8.5,55,0.00,,,0.00,WUHU216HW,2013-01-27 00:39:00,
2013-01-26 18:44:00,39.3,24.4,28.62,SSE,158,13.6,13.6,55,0.00,,,0.00,WUHU216HW,2013-01-27 00:44:00,
2013-01-26 18:49:00,39.3,24.4,28.63,SSE,158,7.3,13.6,55,0.00,,,0.00,WUHU216HW,2013-01-27 00:49:00,
2013-01-26 18:54:00,39.0,24.0,28.63,SE,135,6.7,13.6,55,0.00,,,0.00,WUHU216HW,2013-01-27 00:54:00,
2013-01-26 18:59:00,39.0,24.0,28.62,South,180,6.2,6.7,55,0.00,,,0.00,WUHU216HW,2013-01-27 00:59:00,
2013-01-26 19:05:00,39.0,24.0,28.62,South,180,6.7,8.0,55,0.00,,,0.00,WUHU216HW,2013-01-27 01:05:00,
2013-01-26 19:10:00,38.8,24.3,28.62,SSE,158,4.2,8.0,56,0.00,,,0.00,WUHU216HW,2013-01-27 01:10:00,
2013-01-26 19:15:00,38.8,24.3,28.62,SE,135,10.5,10.5,56,0.00,,,0.00,WUHU216HW,2013-01-27 01:15:00,
2013-01-26 19:20:00,38.4,24.0,28.62,SSE,158,6.2,10.5,56,0.00,,,0.00,WUHU216HW,2013-01-27 01:20:00,
2013-01-26 19:25:00,38.4,24.0,28.62,SSE,158,5.1,10.5,56,0.00,,,0.00,WUHU216HW,2013-01-27 01:25:00,
2013-01-26 19:30:00,38.3,23.8,28.63,SSE,158,7.8,8.9,56,0.00,,,0.00,WUHU216HW,2013-01-27 01:30:00,
2013-01-26 19:35:00,38.3,23.8,28.62,SSE,158,5.1,8.9,56,0.00,,,0.00,WUHU216HW,2013-01-27 01:35:00,
2013-01-26 19:40:00,38.1,24.1,28.62,SSE,158,10.7,10.7,57,0.00,,,0.00,WUHU216HW,2013-01-27 01:40:00,
2013-01-26 19:45:00,37.9,23.9,28.62,SSE,158,6.0,10.7,57,0.00,,,0.00,WUHU216HW,2013-01-27 01:45:00,
2013-01-26 19:50:00,37.9,23.9,28.62,SE,135,5.8,10.7,57,0.00,,,0.00,WUHU216HW,2013-01-27 01:50:00,
2013-01-26 19:55:00,37.7,23.8,28.62,SSE,158,7.1,7.6,57,0.00,,,0.00,WUHU216HW,2013-01-27 01:55:00,
2013-01-26 20:00:00,37.7,23.8,28.62,SSE,158,9.1,9.1,57,0.00,,,0.00,WUHU216HW,2013-01-27 02:00:00,
2013-01-26 20:05:00,37.5,24.0,28.62,SSE,158,6.2,9.1,58,0.00,,,0.00,WUHU216HW,2013-01-27 02:05:00,
2013-01-26 20:10:00,37.5,24.0,28.62,SSE,158,12.3,12.3,58,0.00,,,0.00,WUHU216HW,2013-01-27 02:10:00,
2013-01-26 20:15:00,37.7,24.2,28.62,South,180,8.2,12.3,58,0.00,,,0.00,WUHU216HW,2013-01-27 02:15:00,
2013-01-26 20:20:00,37.7,24.2,28.62,SSE,158,4.6,12.3,58,0.00,,,0.00,WUHU216HW,2013-01-27 02:20:00,
2013-01-26 20:25:00,37.7,24.2,28.62,SSE,158,8.0,8.0,58,0.00,,,0.00,WUHU216HW,2013-01-27 02:25:00,
2013-01-26 20:31:00,37.7,24.2,28.62,SSE,158,6.0,12.5,58,0.00,,,0.00,WUHU216HW,2013-01-27 02:31:00,
2013-01-26 20:36:00,37.7,24.2,28.62,SSE,158,12.0,12.5,58,0.00,,,0.00,WUHU216HW,2013-01-27 02:36:00,
2013-01-26 20:41:00,37.7,24.2,28.62,SE,135,3.8,12.0,58,0.00,,,0.00,WUHU216HW,2013-01-27 02:41:00,
2013-01-26 20:46:00,37.5,24.0,28.62,SSE,158,13.6,13.6,58,0.00,,,0.00,WUHU216HW,2013-01-27 02:46:00,
2013-01-26 20:51:00,37.5,24.0,28.62,SE,135,6.2,13.6,58,0.00,,,0.00,WUHU216HW,2013-01-27 02:51:00,
2013-01-26 20:56:00,37.4,23.9,28.62,SE,135,9.1,9.8,58,0.00,,,0.00,WUHU216HW,2013-01-27 02:56:00,
2013-01-26 21:01:00,37.2,23.7,28.61,SSE,158,16.3,16.3,58,0.00,,,0.00,WUHU216HW,2013-01-27 03:01:00,
2013-01-26 21:06:00,37.2,23.7,28.61,South,180,8.7,16.3,58,0.00,,,0.00,WUHU216HW,2013-01-27 03:06:00,
2013-01-26 21:11:00,37.0,23.6,28.61,SSE,158,4.2,16.3,58,0.00,,,0.00,WUHU216HW,2013-01-27 03:11:00,
2013-01-26 21:16:00,36.8,23.8,28.61,SSE,158,5.3,8.7,58,0.00,,,0.00,WUHU216HW,2013-01-27 03:16:00,
2013-01-26 21:21:00,36.6,23.7,28.61,SSE,158,8.2,8.2,59,0.00,,,0.00,WUHU216HW,2013-01-27 03:21:00,
2013-01-26 21:27:00,36.5,23.5,28.61,SSE,158,6.9,10.9,59,0.00,,,0.00,WUHU216HW,2013-01-27 03:27:00,
2013-01-26 21:32:00,36.5,23.3,28.61,SSE,158,9.6,10.9,59,0.00,,,0.00,WUHU216HW,2013-01-27 03:32:00,
2013-01-26 21:37:00,36.3,23.3,28.60,SE,135,19.4,19.4,59,0.00,,,0.00,WUHU216HW,2013-01-27 03:37:00,
2013-01-26 21:42:00,36.1,23.2,28.60,SSE,158,7.6,19.4,59,0.00,,,0.00,WUHU216HW,2013-01-27 03:42:00,
2013-01-26 21:47:00,36.1,23.2,28.61,SSE,158,11.4,11.4,59,0.00,,,0.00,WUHU216HW,2013-01-27 03:47:00,
2013-01-26 21:52:00,36.1,23.2,28.60,SE,135,7.3,11.4,59,0.00,,,0.00,WUHU216HW,2013-01-27 03:52:00,
2013-01-26 21:57:00,36.1,23.2,28.60,SSE,158,6.7,11.4,59,0.00,,,0.00,WUHU216HW,2013-01-27 03:57:00,
2013-01-26 22:02:00,36.1,23.2,28.60,SE,135,11.8,11.8,59,0.00,,,0.00,WUHU216HW,2013-01-27 04:02:00,
2013-01-26 22:07:00,35.9,23.0,28.60,SE,135,7.3,11.8,59,0.00,,,0.00,WUHU216HW,2013-01-27 04:07:00,
2013-01-26 22:12:00,35.9,23.5,28.60,SE,135,12.0,12.0,60,0.00,,,0.00,WUHU216HW,2013-01-27 04:12:00,
2013-01-26 22:17:00,35.9,23.5,28.60,SSE,158,6.9,12.0,60,0.00,,,0.00,WUHU216HW,2013-01-27 04:17:00,
2013-01-26 22:22:00,35.9,23.5,28.60,SSE,158,6.4,12.0,60,0.00,,,0.00,WUHU216HW,2013-01-27 04:22:00,
2013-01-26 22:27:00,35.9,23.5,28.60,SE,135,11.1,11.1,60,0.00,,,0.00,WUHU216HW,2013-01-27 04:27:00,
2013-01-26 22:32:00,35.9,23.5,28.60,SE,135,5.8,13.4,60,0.00,,,0.00,WUHU216HW,2013-01-27 04:32:00,
2013-01-26 22:37:00,35.9,23.5,28.60,SSE,158,12.0,13.4,60,0.00,,,0.00,WUHU216HW,2013-01-27 04:37:00,
2013-01-26 22:42:00,35.9,23.5,28.60,SE,135,15.6,15.6,60,0.00,,,0.00,WUHU216HW,2013-01-27 04:42:00,
2013-01-26 22:47:00,35.9,23.5,28.60,SSE,158,16.7,16.7,60,0.00,,,0.00,WUHU216HW,2013-01-27 04:47:00,
2013-01-26 22:52:00,35.9,23.5,28.60,South,180,14.0,16.7,60,0.00,,,0.00,WUHU216HW,2013-01-27 04:52:00,
2013-01-26 22:57:00,36.1,23.6,28.60,SSE,158,10.7,14.9,60,0.00,,,0.00,WUHU216HW,2013-01-27 04:57:00,
2013-01-26 23:00:00,36.1,23.6,28.59,SE,135,9.8,14.9,60,0.00,,,0.00,WUHU216HW,2013-01-27 05:00:00,
2013-01-26 23:02:00,36.1,23.6,28.60,South,180,7.6,14.9,60,0.00,,,0.00,WUHU216HW,2013-01-27 05:02:00,
2013-01-26 23:03:00,36.1,23.6,28.60,South,180,7.6,14.9,60,0.00,,,0.00,WUHU216HW,2013-01-27 05:03:00,
2013-01-26 23:08:00,36.1,23.6,28.60,SE,135,6.7,9.8,60,0.00,,,0.00,WUHU216HW,2013-01-27 05:08:00,
2013-01-26 23:13:00,36.3,23.8,28.59,SSE,158,13.6,13.6,60,0.00,,,0.00,WUHU216HW,2013-01-27 05:13:00,
2013-01-26 23:18:00,36.3,23.8,28.60,SSE,158,7.6,13.6,60,0.00,,,0.00,WUHU216HW,2013-01-27 05:18:00,
2013-01-26 23:23:00,36.3,23.8,28.60,SE,135,10.5,12.0,60,0.00,,,0.00,WUHU216HW,2013-01-27 05:23:00,
2013-01-26 23:28:00,36.3,23.8,28.59,South,180,6.7,10.5,60,0.00,,,0.00,WUHU216HW,2013-01-27 05:28:00,
2013-01-26 23:33:00,36.5,23.9,28.59,SSE,158,16.7,16.7,60,0.00,,,0.00,WUHU216HW,2013-01-27 05:33:00,
2013-01-26 23:38:00,36.5,23.9,28.59,SE,135,8.9,16.7,60,0.00,,,0.00,WUHU216HW,2013-01-27 05:38:00,
2013-01-26 23:43:00,36.5,23.9,28.59,SSE,158,10.2,10.2,60,0.00,,,0.00,WUHU216HW,2013-01-27 05:43:00,
2013-01-26 23:49:00,36.5,23.9,28.59,SE,135,12.0,15.4,60,0.00,,,0.00,WUHU216HW,2013-01-27 05:49:00,
2013-01-26 23:54:00,36.5,23.9,28.59,SSE,158,2.2,15.4,60,0.00,,,0.00,WUHU216HW,2013-01-27 05:54:00,
2013-01-26 23:59:00,36.5,23.9,28.59,SE,135,3.1,11.4,60,0.00,,,0.00,WUHU216HW,2013-01-27 05:59:00,